Kezdőlap
METAR-TAF:

METAR-TAF

Repülőterek :

Pella Municipal Airport

Pella, Iowa, Amerikai Egyesült Államok

földrajzi szélesség: 41-24N, földrajzi hosszúság: 092-56W, magasság: 270 m

Jelenlegi meteorológiai megfigyelések

A jelentés 24 perccel ezelõtt készült, 17:15 UTC
Északkeleti szél 6 kt
Hőmérséklet 14°C
Páratartalom 33%
Légköri nyomás 1028 hPa
Látótávolság: 16.1 km
Derült ég

METAR: KPEA 111715Z AUTO 05006KT 10SM CLR 14/M02 A3035 RMK AO2 T01411019

Idő: 12:39 (17:39 UTC)


TAF: hiányzik

Meteorológiai megfigyelések és előrejelzések több, mint 4000 repülőtéren (METAR és TAF jelentéseket).

A térképen piros és sárga pontok jelzik az elérhető meteorológiai állomásokat.

Mozgassa az egeret a pont fölött, hogy megjelenjen az állomás neve.

Azután kattintson az időjárási megfigyelések és előrejelzések megtekintéséhez.

A térkép megváltoztatása: kattintson a fekete keresztel jelölt zöld gombra ráközelítéshez, a vonallal jelölt zöld gombra távolításhoz, vagy a zöld nyilakra a szomszédos térképek eléréséhez.


METAR-TAF: